Location: Andrest
(43.3200°N, 0.0641°E)
Time: 13:35:33
(UTC+00:00)

CORIOLIS - Pass Details

Date: 01 December 2020
Orbit: 817 x 839 km, 98.7° (Epoch: 24 January)

Event Time Altitude Azimuth Distance (km) Brightness Sun altitude
Rises 17:24:31 0° 162° (SSE) 3,360 7.4 -10.6°
Reaches altitude 10° 17:26:51 10° 161° (SSE) 2,434 6.6 -11.0°
Maximum altitude 17:32:16 83° 74° (ENE) 848 4.1 -12.0°
Drops below altitude 10° 17:37:44 10° 348° (NNW) 2,462 6.6 -12.9°
Sets 17:40:06 0° 347° (NNW) 3,402 7.3 -13.3°
